Time,TemperatureF,DewpointF,PressureIn,WindDirection,WindDirectionDegrees,WindSpeedMPH,WindSpeedGustMPH,Humidity,HourlyPrecipIn,Conditions,Clouds,dailyrainin,SoftwareType,DateUTC
2013-05-03 00:01:00,31.9,23.6,30.48,North,359,3.0,3.0,71,0.00,,,0.00,vanprod-2.3,2013-05-03 05:01:00,
2013-05-03 00:06:00,31.7,23.7,30.48,North,358,5.0,5.0,72,0.00,,,0.00,vanprod-2.3,2013-05-03 05:06:00,
2013-05-03 00:11:00,31.6,23.6,30.47,North,358,5.0,5.0,72,0.00,,,0.00,vanprod-2.3,2013-05-03 05:11:00,
2013-05-03 00:16:00,31.4,23.8,30.47,North,0,3.0,3.0,73,0.00,,,0.00,vanprod-2.3,2013-05-03 05:16:00,
2013-05-03 00:21:00,31.3,23.7,30.47,North,360,4.0,6.0,73,0.00,,,0.00,vanprod-2.3,2013-05-03 05:21:00,
2013-05-03 00:26:00,31.1,23.5,30.47,North,0,4.0,4.0,73,0.00,,,0.00,vanprod-2.3,2013-05-03 05:26:00,
2013-05-03 00:31:00,31.1,23.8,30.47,North,3,1.0,1.0,74,0.00,,,0.00,vanprod-2.3,2013-05-03 05:31:00,
2013-05-03 00:36:00,31.0,23.7,30.47,North,3,1.0,3.0,74,0.00,,,0.00,vanprod-2.3,2013-05-03 05:36:00,
2013-05-03 00:41:00,30.7,23.4,30.46,North,7,3.0,3.0,74,0.00,,,0.00,vanprod-2.3,2013-05-03 05:41:00,
2013-05-03 00:46:00,30.5,23.5,30.46,North,9,4.0,7.0,75,0.00,,,0.00,vanprod-2.3,2013-05-03 05:46:00,
2013-05-03 00:51:00,30.4,23.4,30.46,North,359,3.0,6.0,75,0.00,,,0.00,vanprod-2.3,2013-05-03 05:51:00,
2013-05-03 00:56:00,30.2,23.6,30.46,North,0,2.0,4.0,76,0.00,,,0.00,vanprod-2.3,2013-05-03 05:56:00,
2013-05-03 01:01:00,30.1,23.5,30.46,North,7,2.0,3.0,76,0.00,,,0.00,vanprod-2.3,2013-05-03 06:01:00,
2013-05-03 01:06:00,29.9,23.3,30.46,North,7,1.0,3.0,76,0.00,,,0.00,vanprod-2.3,2013-05-03 06:06:00,
2013-05-03 01:11:00,29.8,23.2,30.46,North,7,2.0,5.0,76,0.00,,,0.00,vanprod-2.3,2013-05-03 06:11:00,
2013-05-03 01:16:00,29.8,23.2,30.46,North,7,2.0,0.0,76,0.00,,,0.00,vanprod-2.3,2013-05-03 06:16:00,
2013-05-03 01:21:00,29.8,23.2,30.46,North,7,2.0,5.0,76,0.00,,,0.00,vanprod-2.3,2013-05-03 06:21:00,
2013-05-03 01:26:00,29.6,23.0,30.45,North,7,1.0,2.0,76,0.00,,,0.00,vanprod-2.3,2013-05-03 06:26:00,
2013-05-03 01:31:00,29.6,23.0,30.45,North,7,2.0,5.0,76,0.00,,,0.00,vanprod-2.3,2013-05-03 06:31:00,
2013-05-03 01:36:00,29.5,22.9,30.45,North,7,0.0,0.0,76,0.00,,,0.00,vanprod-2.3,2013-05-03 06:36:00,
2013-05-03 01:41:00,29.5,23.2,30.45,North,7,0.0,1.0,77,0.00,,,0.00,vanprod-2.3,2013-05-03 06:41:00,
2013-05-03 01:46:00,29.3,23.0,30.45,North,7,0.0,0.0,77,0.00,,,0.00,vanprod-2.3,2013-05-03 06:46:00,
2013-05-03 01:51:00,29.0,23.0,30.45,North,7,1.0,0.0,78,0.00,,,0.00,vanprod-2.3,2013-05-03 06:51:00,
2013-05-03 01:56:00,28.9,22.9,30.45,North,7,2.0,2.0,78,0.00,,,0.00,vanprod-2.3,2013-05-03 06:56:00,
2013-05-03 02:01:00,28.6,22.9,30.45,North,7,1.0,2.0,79,0.00,,,0.00,vanprod-2.3,2013-05-03 07:01:00,
2013-05-03 02:06:00,28.5,22.8,30.45,North,7,1.0,2.0,79,0.00,,,0.00,vanprod-2.3,2013-05-03 07:06:00,
2013-05-03 02:11:00,28.5,22.8,30.44,North,7,0.0,0.0,79,0.00,,,0.00,vanprod-2.3,2013-05-03 07:11:00,
2013-05-03 02:16:00,28.3,22.9,30.44,North,7,1.0,2.0,80,0.00,,,0.00,vanprod-2.3,2013-05-03 07:16:00,
2013-05-03 02:21:00,28.2,22.8,30.44,North,3,1.0,2.0,80,0.00,,,0.00,vanprod-2.3,2013-05-03 07:21:00,
2013-05-03 02:26:00,28.2,22.8,30.44,North,3,1.0,2.0,80,0.00,,,0.00,vanprod-2.3,2013-05-03 07:26:00,
2013-05-03 02:31:00,28.0,22.6,30.43,North,3,2.0,2.0,80,0.00,,,0.00,vanprod-2.3,2013-05-03 07:31:00,
2013-05-03 02:36:00,28.0,22.6,30.43,North,3,0.0,0.0,80,0.00,,,0.00,vanprod-2.3,2013-05-03 07:36:00,
2013-05-03 02:41:00,27.9,22.5,30.43,North,3,1.0,0.0,80,0.00,,,0.00,vanprod-2.3,2013-05-03 07:41:00,
2013-05-03 02:46:00,27.9,22.5,30.43,North,3,0.0,3.0,80,0.00,,,0.00,vanprod-2.3,2013-05-03 07:46:00,
2013-05-03 02:51:00,27.9,22.5,30.43,North,3,1.0,1.0,80,0.00,,,0.00,vanprod-2.3,2013-05-03 07:51:00,
2013-05-03 02:56:00,27.7,22.3,30.43,North,2,3.0,3.0,80,0.00,,,0.00,vanprod-2.3,2013-05-03 07:56:00,
2013-05-03 03:01:00,27.7,22.3,30.43,North,1,2.0,2.0,80,0.00,,,0.00,vanprod-2.3,2013-05-03 08:01:00,
2013-05-03 03:06:00,27.7,22.3,30.43,North,360,3.0,3.0,80,0.00,,,0.00,vanprod-2.3,2013-05-03 08:06:00,
2013-05-03 03:11:00,27.6,22.2,30.43,North,360,4.0,4.0,80,0.00,,,0.00,vanprod-2.3,2013-05-03 08:11:00,
2013-05-03 03:16:00,27.6,22.2,30.43,North,360,4.0,4.0,80,0.00,,,0.00,vanprod-2.3,2013-05-03 08:16:00,
2013-05-03 03:21:00,27.4,22.1,30.43,North,360,3.0,0.0,80,0.00,,,0.00,vanprod-2.3,2013-05-03 08:21:00,
2013-05-03 03:26:00,27.3,22.0,30.42,North,360,4.0,4.0,80,0.00,,,0.00,vanprod-2.3,2013-05-03 08:26:00,
2013-05-03 03:31:00,27.1,22.1,30.42,North,360,3.0,3.0,81,0.00,,,0.00,vanprod-2.3,2013-05-03 08:31:00,
2013-05-03 03:36:00,27.1,21.8,30.42,North,360,3.0,3.0,80,0.00,,,0.00,vanprod-2.3,2013-05-03 08:36:00,
2013-05-03 03:41:00,27.1,21.8,30.42,North,360,4.0,4.0,80,0.00,,,0.00,vanprod-2.3,2013-05-03 08:41:00,
2013-05-03 03:46:00,27.1,21.8,30.42,North,360,4.0,8.0,80,0.00,,,0.00,vanprod-2.3,2013-05-03 08:46:00,
2013-05-03 03:51:00,27.0,21.7,30.42,North,359,4.0,4.0,80,0.00,,,0.00,vanprod-2.3,2013-05-03 08:51:00,
2013-05-03 03:56:00,27.0,21.7,30.42,North,359,3.0,3.0,80,0.00,,,0.00,vanprod-2.3,2013-05-03 08:56:00,
2013-05-03 04:01:00,26.8,21.5,30.42,North,359,3.0,3.0,80,0.00,,,0.00,vanprod-2.3,2013-05-03 09:01:00,
2013-05-03 04:06:00,26.8,21.5,30.42,North,359,1.0,0.0,80,0.00,,,0.00,vanprod-2.3,2013-05-03 09:06:00,
2013-05-03 04:11:00,26.8,21.5,30.41,North,359,3.0,3.0,80,0.00,,,0.00,vanprod-2.3,2013-05-03 09:11:00,
2013-05-03 04:16:00,26.7,21.4,30.42,North,359,3.0,3.0,80,0.00,,,0.00,vanprod-2.3,2013-05-03 09:16:00,
2013-05-03 04:21:00,26.7,21.4,30.42,North,359,2.0,2.0,80,0.00,,,0.00,vanprod-2.3,2013-05-03 09:21:00,
2013-05-03 04:26:00,26.5,21.5,30.41,North,359,2.0,3.0,81,0.00,,,0.00,vanprod-2.3,2013-05-03 09:26:00,
2013-05-03 04:31:00,26.5,21.5,30.42,North,359,2.0,3.0,81,0.00,,,0.00,vanprod-2.3,2013-05-03 09:31:00,
2013-05-03 04:36:00,26.4,21.4,30.42,North,359,2.0,2.0,81,0.00,,,0.00,vanprod-2.3,2013-05-03 09:36:00,
2013-05-03 04:41:00,26.4,21.4,30.42,North,359,2.0,2.0,81,0.00,,,0.00,vanprod-2.3,2013-05-03 09:41:00,
2013-05-03 04:46:00,26.2,21.2,30.42,North,359,3.0,3.0,81,0.00,,,0.00,vanprod-2.3,2013-05-03 09:46:00,
2013-05-03 04:51:00,26.2,21.2,30.42,North,359,2.0,3.0,81,0.00,,,0.00,vanprod-2.3,2013-05-03 09:51:00,
2013-05-03 04:56:00,26.1,21.1,30.41,North,359,4.0,4.0,81,0.00,,,0.00,vanprod-2.3,2013-05-03 09:56:00,
2013-05-03 05:01:00,26.1,21.1,30.41,North,359,4.0,6.0,81,0.00,,,0.00,vanprod-2.3,2013-05-03 10:01:00,
2013-05-03 05:06:00,26.1,21.1,30.41,North,359,2.0,5.0,81,0.00,,,0.00,vanprod-2.3,2013-05-03 10:06:00,
2013-05-03 05:11:00,26.1,21.1,30.41,North,359,1.0,1.0,81,0.00,,,0.00,vanprod-2.3,2013-05-03 10:11:00,
2013-05-03 05:16:00,25.9,21.2,30.41,North,359,2.0,4.0,82,0.00,,,0.00,vanprod-2.3,2013-05-03 10:16:00,
2013-05-03 05:21:00,25.9,21.2,30.41,North,359,2.0,3.0,82,0.00,,,0.00,vanprod-2.3,2013-05-03 10:21:00,
2013-05-03 05:26:00,25.8,21.1,30.40,North,359,4.0,4.0,82,0.00,,,0.00,vanprod-2.3,2013-05-03 10:26:00,
2013-05-03 05:31:00,25.8,21.1,30.40,North,359,3.0,4.0,82,0.00,,,0.00,vanprod-2.3,2013-05-03 10:31:00,
2013-05-03 05:36:00,25.6,20.9,30.40,North,359,4.0,4.0,82,0.00,,,0.00,vanprod-2.3,2013-05-03 10:36:00,
2013-05-03 05:41:00,25.6,20.9,30.40,North,359,3.0,7.0,82,0.00,,,0.00,vanprod-2.3,2013-05-03 10:41:00,
2013-05-03 05:46:00,25.6,21.2,30.40,North,359,3.0,7.0,83,0.00,,,0.00,vanprod-2.3,2013-05-03 10:46:00,
2013-05-03 05:51:00,25.5,21.1,30.39,North,360,3.0,6.0,83,0.00,,,0.00,vanprod-2.3,2013-05-03 10:51:00,
2013-05-03 05:56:00,25.5,21.1,30.39,North,0,2.0,3.0,83,0.00,,,0.00,vanprod-2.3,2013-05-03 10:56:00,
2013-05-03 06:01:00,25.5,20.8,30.39,North,359,2.0,3.0,82,0.00,,,0.00,vanprod-2.3,2013-05-03 11:01:00,
2013-05-03 06:06:00,25.6,20.9,30.39,North,359,4.0,5.0,82,0.00,,,0.00,vanprod-2.3,2013-05-03 11:06:00,
2013-05-03 06:11:00,25.6,20.9,30.39,North,359,3.0,5.0,82,0.00,,,0.00,vanprod-2.3,2013-05-03 11:11:00,
2013-05-03 06:16:00,25.8,21.1,30.39,North,360,3.0,9.0,82,0.00,,,0.00,vanprod-2.3,2013-05-03 11:16:00,
2013-05-03 06:21:00,25.8,20.8,30.39,North,360,3.0,3.0,81,0.00,,,0.00,vanprod-2.3,2013-05-03 11:21:00,
2013-05-03 06:26:00,25.8,20.8,30.38,North,360,3.0,5.0,81,0.00,,,0.00,vanprod-2.3,2013-05-03 11:26:00,
2013-05-03 06:31:00,25.9,20.9,30.39,North,360,3.0,3.0,81,0.00,,,0.00,vanprod-2.3,2013-05-03 11:31:00,
2013-05-03 06:36:00,25.9,20.9,30.39,North,360,4.0,6.0,81,0.00,,,0.00,vanprod-2.3,2013-05-03 11:36:00,
2013-05-03 06:41:00,25.9,20.9,30.39,North,360,4.0,8.0,81,0.00,,,0.00,vanprod-2.3,2013-05-03 11:41:00,
2013-05-03 06:46:00,25.9,20.9,30.39,North,360,3.0,6.0,81,0.00,,,0.00,vanprod-2.3,2013-05-03 11:46:00,
2013-05-03 06:51:00,26.1,21.1,30.39,North,360,2.0,3.0,81,0.00,,,0.00,vanprod-2.3,2013-05-03 11:51:00,
2013-05-03 06:56:00,26.1,21.1,30.39,North,360,3.0,8.0,81,0.00,,,0.00,vanprod-2.3,2013-05-03 11:56:00,
2013-05-03 07:01:00,26.5,21.5,30.39,North,359,4.0,6.0,81,0.00,,,0.00,vanprod-2.3,2013-05-03 12:01:00,
2013-05-03 07:06:00,26.7,21.4,30.39,North,359,4.0,4.0,80,0.00,,,0.00,vanprod-2.3,2013-05-03 12:06:00,
2013-05-03 07:11:00,27.1,21.8,30.39,North,358,3.0,4.0,80,0.00,,,0.00,vanprod-2.3,2013-05-03 12:11:00,
2013-05-03 07:16:00,27.4,21.8,30.39,North,0,4.0,6.0,79,0.00,,,0.00,vanprod-2.3,2013-05-03 12:16:00,
2013-05-03 07:21:00,27.7,21.7,30.39,North,4,5.0,5.0,78,0.00,,,0.00,vanprod-2.3,2013-05-03 12:21:00,
2013-05-03 07:26:00,28.0,22.0,30.39,North,3,2.0,2.0,78,0.00,,,0.00,vanprod-2.3,2013-05-03 12:26:00,
2013-05-03 07:31:00,28.3,22.3,30.39,North,1,3.0,3.0,78,0.00,,,0.00,vanprod-2.3,2013-05-03 12:31:00,
2013-05-03 07:36:00,28.5,22.2,30.39,North,1,3.0,3.0,77,0.00,,,0.00,vanprod-2.3,2013-05-03 12:36:00,
2013-05-03 07:41:00,28.6,22.3,30.39,North,360,3.0,7.0,77,0.00,,,0.00,vanprod-2.3,2013-05-03 12:41:00,
2013-05-03 07:46:00,28.6,22.3,30.39,North,357,5.0,5.0,77,0.00,,,0.00,vanprod-2.3,2013-05-03 12:46:00,
2013-05-03 07:51:00,28.9,22.6,30.39,North,358,3.0,3.0,77,0.00,,,0.00,vanprod-2.3,2013-05-03 12:51:00,
2013-05-03 07:56:00,29.3,22.7,30.39,North,359,5.0,7.0,76,0.00,,,0.00,vanprod-2.3,2013-05-03 12:56:00,
2013-05-03 08:01:00,29.8,22.9,30.38,North,359,6.0,8.0,75,0.00,,,0.00,vanprod-2.3,2013-05-03 13:01:00,
2013-05-03 08:06:00,30.1,22.8,30.38,North,360,3.0,5.0,74,0.00,,,0.00,vanprod-2.3,2013-05-03 13:06:00,
2013-05-03 08:11:00,30.4,23.1,30.38,North,1,4.0,7.0,74,0.00,,,0.00,vanprod-2.3,2013-05-03 13:11:00,
2013-05-03 08:16:00,30.8,22.9,30.38,North,4,6.0,6.0,72,0.00,,,0.00,vanprod-2.3,2013-05-03 13:16:00,
2013-05-03 08:21:00,31.3,22.7,30.37,North,355,5.0,5.0,70,0.00,,,0.00,vanprod-2.3,2013-05-03 13:21:00,
2013-05-03 08:26:00,31.9,22.9,30.37,North,7,6.0,6.0,69,0.00,,,0.00,vanprod-2.3,2013-05-03 13:26:00,
2013-05-03 08:31:00,32.2,23.2,30.37,North,352,6.0,11.0,69,0.00,,,0.00,vanprod-2.3,2013-05-03 13:31:00,
2013-05-03 08:36:00,32.4,23.0,30.37,NNE,33,5.0,5.0,68,0.00,,,0.00,vanprod-2.3,2013-05-03 13:36:00,
2013-05-03 08:41:00,32.7,23.0,30.36,North,8,7.0,7.0,67,0.00,,,0.00,vanprod-2.3,2013-05-03 13:41:00,
2013-05-03 08:46:00,32.7,23.0,30.36,North,351,7.0,7.0,67,0.00,,,0.00,vanprod-2.3,2013-05-03 13:46:00,
2013-05-03 08:51:00,33.0,23.3,30.36,NNW,347,5.0,5.0,67,0.00,,,0.00,vanprod-2.3,2013-05-03 13:51:00,
2013-05-03 08:56:00,33.5,23.7,30.35,North,360,4.0,4.0,67,0.00,,,0.00,vanprod-2.3,2013-05-03 13:56:00,
2013-05-03 09:01:00,33.8,23.7,30.35,North,359,5.0,6.0,66,0.00,,,0.00,vanprod-2.3,2013-05-03 14:01:00,
2013-05-03 09:06:00,34.2,23.7,30.35,North,350,8.0,10.0,65,0.00,,,0.00,vanprod-2.3,2013-05-03 14:06:00,
2013-05-03 09:11:00,34.2,23.7,30.36,NNE,28,5.0,5.0,65,0.00,,,0.00,vanprod-2.3,2013-05-03 14:11:00,
2013-05-03 09:16:00,34.4,23.9,30.35,North,2,7.0,10.0,65,0.00,,,0.00,vanprod-2.3,2013-05-03 14:16:00,
2013-05-03 09:21:00,34.8,24.2,30.35,NNE,16,4.0,4.0,65,0.00,,,0.00,vanprod-2.3,2013-05-03 14:21:00,
2013-05-03 09:26:00,35.1,24.2,30.35,NNE,19,6.0,6.0,64,0.00,,,0.00,vanprod-2.3,2013-05-03 14:26:00,
2013-05-03 09:31:00,35.3,24.0,30.35,North,5,7.0,12.0,63,0.00,,,0.00,vanprod-2.3,2013-05-03 14:31:00,
2013-05-03 09:36:00,35.7,24.0,30.35,NNE,13,5.0,5.0,62,0.00,,,0.00,vanprod-2.3,2013-05-03 14:36:00,
2013-05-03 09:41:00,35.7,24.0,30.35,NE,38,7.0,9.0,62,0.00,,,0.00,vanprod-2.3,2013-05-03 14:41:00,
2013-05-03 09:46:00,35.8,24.5,30.35,North,5,4.0,7.0,63,0.00,,,0.00,vanprod-2.3,2013-05-03 14:46:00,
2013-05-03 09:51:00,36.1,24.0,30.35,NNE,18,6.0,10.0,61,0.00,,,0.00,vanprod-2.3,2013-05-03 14:51:00,
2013-05-03 09:56:00,36.4,24.2,30.34,North,355,8.0,8.0,61,0.00,,,0.00,vanprod-2.3,2013-05-03 14:56:00,
2013-05-03 10:01:00,36.7,24.1,30.34,North,6,7.0,7.0,60,0.00,,,0.00,vanprod-2.3,2013-05-03 15:01:00,
2013-05-03 10:06:00,36.7,24.5,30.34,North,350,6.0,6.0,61,0.00,,,0.00,vanprod-2.3,2013-05-03 15:06:00,
2013-05-03 10:11:00,37.1,24.5,30.34,North,3,7.0,10.0,60,0.00,,,0.00,vanprod-2.3,2013-05-03 15:11:00,
2013-05-03 10:16:00,37.3,24.3,30.34,North,7,5.0,5.0,59,0.00,,,0.00,vanprod-2.3,2013-05-03 15:16:00,
2013-05-03 10:21:00,37.8,24.4,30.34,NNE,21,6.0,6.0,58,0.00,,,0.00,vanprod-2.3,2013-05-03 15:21:00,
2013-05-03 10:26:00,38.0,24.6,30.34,North,9,5.0,7.0,58,0.00,,,0.00,vanprod-2.3,2013-05-03 15:26:00,
2013-05-03 10:31:00,38.7,24.8,30.34,North,352,2.0,2.0,57,0.00,,,0.00,vanprod-2.3,2013-05-03 15:31:00,
2013-05-03 10:36:00,39.0,24.6,30.34,NNE,16,5.0,10.0,56,0.00,,,0.00,vanprod-2.3,2013-05-03 15:36:00,
2013-05-03 10:41:00,38.8,24.9,30.34,North,10,4.0,4.0,57,0.00,,,0.00,vanprod-2.3,2013-05-03 15:41:00,
2013-05-03 10:46:00,39.4,24.6,30.33,NNW,330,3.0,3.0,55,0.00,,,0.00,vanprod-2.3,2013-05-03 15:46:00,
2013-05-03 10:51:00,39.8,25.4,30.32,NW,324,5.0,6.0,56,0.00,,,0.00,vanprod-2.3,2013-05-03 15:51:00,
2013-05-03 10:56:00,39.7,24.0,30.32,North,1,5.0,5.0,53,0.00,,,0.00,vanprod-2.3,2013-05-03 15:56:00,
2013-05-03 11:01:00,39.8,25.4,30.32,North,3,3.0,3.0,56,0.00,,,0.00,vanprod-2.3,2013-05-03 16:01:00,
2013-05-03 11:06:00,40.3,24.5,30.32,North,1,6.0,11.0,53,0.00,,,0.00,vanprod-2.3,2013-05-03 16:06:00,
2013-05-03 11:11:00,40.4,24.2,30.31,North,349,7.0,7.0,52,0.00,,,0.00,vanprod-2.3,2013-05-03 16:11:00,
2013-05-03 11:16:00,40.7,24.5,30.31,North,10,6.0,7.0,52,0.00,,,0.00,vanprod-2.3,2013-05-03 16:16:00,
2013-05-03 11:21:00,40.3,24.1,30.31,North,360,4.0,4.0,52,0.00,,,0.00,vanprod-2.3,2013-05-03 16:21:00,
2013-05-03 11:26:00,40.3,24.5,30.31,NE,38,6.0,10.0,53,0.00,,,0.00,vanprod-2.3,2013-05-03 16:26:00,
2013-05-03 11:31:00,41.0,24.3,30.31,NNE,25,7.0,7.0,51,0.00,,,0.00,vanprod-2.3,2013-05-03 16:31:00,
2013-05-03 11:36:00,41.3,24.1,30.31,NNE,28,7.0,7.0,50,0.00,,,0.00,vanprod-2.3,2013-05-03 16:36:00,
2013-05-03 11:41:00,42.0,24.7,30.30,NNW,335,4.0,5.0,50,0.00,,,0.00,vanprod-2.3,2013-05-03 16:41:00,
2013-05-03 11:46:00,42.4,25.6,30.30,North,8,4.0,7.0,51,0.00,,,0.00,vanprod-2.3,2013-05-03 16:46:00,
2013-05-03 11:51:00,42.3,24.0,30.29,NNE,12,6.0,6.0,48,0.00,,,0.00,vanprod-2.3,2013-05-03 16:51:00,
2013-05-03 11:56:00,42.0,23.7,30.29,NNE,17,8.0,9.0,48,0.00,,,0.00,vanprod-2.3,2013-05-03 16:56:00,
2013-05-03 12:01:00,41.7,24.0,30.29,NNE,20,6.0,14.0,49,0.00,,,0.00,vanprod-2.3,2013-05-03 17:01:00,
2013-05-03 12:06:00,41.7,24.4,30.28,North,0,6.0,7.0,50,0.00,,,0.00,vanprod-2.3,2013-05-03 17:06:00,
2013-05-03 12:11:00,42.3,24.5,30.28,North,10,7.0,7.0,49,0.00,,,0.00,vanprod-2.3,2013-05-03 17:11:00,
2013-05-03 12:16:00,42.8,25.0,30.27,North,358,7.0,7.0,49,0.00,,,0.00,vanprod-2.3,2013-05-03 17:16:00,
2013-05-03 12:21:00,44.0,24.6,30.27,North,6,4.0,10.0,46,0.00,,,0.00,vanprod-2.3,2013-05-03 17:21:00,
2013-05-03 12:26:00,44.1,25.2,30.27,North,2,5.0,9.0,47,0.00,,,0.00,vanprod-2.3,2013-05-03 17:26:00,
2013-05-03 12:31:00,43.4,23.5,30.27,NNE,18,11.0,15.0,45,0.00,,,0.00,vanprod-2.3,2013-05-03 17:31:00,
2013-05-03 12:36:00,43.3,23.4,30.26,NNE,14,10.0,11.0,45,0.00,,,0.00,vanprod-2.3,2013-05-03 17:36:00,
2013-05-03 12:41:00,43.6,23.7,30.26,NNE,18,8.0,8.0,45,0.00,,,0.00,vanprod-2.3,2013-05-03 17:41:00,
2013-05-03 12:46:00,43.7,24.3,30.26,NNE,19,8.0,13.0,46,0.00,,,0.00,vanprod-2.3,2013-05-03 17:46:00,
2013-05-03 12:51:00,44.3,24.8,30.26,North,360,11.0,11.0,46,0.00,,,0.00,vanprod-2.3,2013-05-03 17:51:00,
2013-05-03 12:56:00,44.3,23.8,30.26,North,11,6.0,6.0,44,0.00,,,0.00,vanprod-2.3,2013-05-03 17:56:00,
2013-05-03 13:01:00,44.3,24.3,30.26,North,354,6.0,6.0,45,0.00,,,0.00,vanprod-2.3,2013-05-03 18:01:00,
2013-05-03 13:06:00,44.9,24.3,30.26,NE,34,8.0,8.0,44,0.00,,,0.00,vanprod-2.3,2013-05-03 18:06:00,
2013-05-03 13:11:00,45.2,24.0,30.25,NNE,14,6.0,7.0,43,0.00,,,0.00,vanprod-2.3,2013-05-03 18:11:00,
2013-05-03 13:16:00,45.2,24.0,30.25,NNW,332,14.0,14.0,43,0.00,,,0.00,vanprod-2.3,2013-05-03 18:16:00,
2013-05-03 13:21:00,45.0,23.9,30.24,NNE,12,7.0,11.0,43,0.00,,,0.00,vanprod-2.3,2013-05-03 18:21:00,
2013-05-03 13:26:00,45.5,24.9,30.24,NNW,348,7.0,7.0,44,0.00,,,0.00,vanprod-2.3,2013-05-03 18:26:00,
2013-05-03 13:31:00,45.6,23.8,30.24,NNE,15,7.0,10.0,42,0.00,,,0.00,vanprod-2.3,2013-05-03 18:31:00,
2013-05-03 13:36:00,46.2,24.4,30.24,NNE,23,6.0,6.0,42,0.00,,,0.00,vanprod-2.3,2013-05-03 18:36:00,
2013-05-03 13:41:00,47.1,24.6,30.24,North,358,6.0,8.0,41,0.00,,,0.00,vanprod-2.3,2013-05-03 18:41:00,
2013-05-03 13:46:00,47.4,23.7,30.24,North,1,9.0,11.0,39,0.00,,,0.00,vanprod-2.3,2013-05-03 18:46:00,
2013-05-03 13:51:00,47.5,23.8,30.23,North,8,6.0,12.0,39,0.00,,,0.00,vanprod-2.3,2013-05-03 18:51:00,
2013-05-03 13:56:00,47.1,22.2,30.23,NNE,33,12.0,17.0,37,0.00,,,0.00,vanprod-2.3,2013-05-03 18:56:00,
2013-05-03 14:01:00,47.2,22.3,30.23,NNE,29,7.0,9.0,37,0.00,,,0.00,vanprod-2.3,2013-05-03 19:01:00,
2013-05-03 14:06:00,47.1,22.8,30.23,NNE,23,9.0,11.0,38,0.00,,,0.00,vanprod-2.3,2013-05-03 19:06:00,
2013-05-03 14:11:00,46.8,23.2,30.23,North,0,6.0,6.0,39,0.00,,,0.00,vanprod-2.3,2013-05-03 19:11:00,
2013-05-03 14:16:00,47.5,22.5,30.23,NNE,18,9.0,12.0,37,0.00,,,0.00,vanprod-2.3,2013-05-03 19:16:00,
2013-05-03 14:21:00,47.1,22.2,30.23,NNE,23,7.0,10.0,37,0.00,,,0.00,vanprod-2.3,2013-05-03 19:21:00,
2013-05-03 14:26:00,47.2,22.3,30.23,NNE,28,8.0,9.0,37,0.00,,,0.00,vanprod-2.3,2013-05-03 19:26:00,
2013-05-03 14:31:00,47.1,23.4,30.23,North,4,5.0,6.0,39,0.00,,,0.00,vanprod-2.3,2013-05-03 19:31:00,
2013-05-03 14:36:00,47.2,22.9,30.22,North,4,6.0,6.0,38,0.00,,,0.00,vanprod-2.3,2013-05-03 19:36:00,
2013-05-03 14:41:00,47.7,22.1,30.21,NNE,22,8.0,12.0,36,0.00,,,0.00,vanprod-2.3,2013-05-03 19:41:00,
2013-05-03 14:46:00,47.8,22.8,30.21,NNW,348,6.0,7.0,37,0.00,,,0.00,vanprod-2.3,2013-05-03 19:46:00,
2013-05-03 14:51:00,48.4,24.0,30.21,North,4,7.0,13.0,38,0.00,,,0.00,vanprod-2.3,2013-05-03 19:51:00,
2013-05-03 14:56:00,48.6,23.5,30.21,North,3,6.0,10.0,37,0.00,,,0.00,vanprod-2.3,2013-05-03 19:56:00,
2013-05-03 15:01:00,48.4,22.0,30.21,NNE,23,8.0,8.0,35,0.00,,,0.00,vanprod-2.3,2013-05-03 20:01:00,
2013-05-03 15:06:00,48.0,22.3,30.21,North,356,7.0,14.0,36,0.00,,,0.00,vanprod-2.3,2013-05-03 20:06:00,
2013-05-03 15:11:00,47.4,21.8,30.21,NNE,24,9.0,12.0,36,0.00,,,0.00,vanprod-2.3,2013-05-03 20:11:00,
2013-05-03 15:16:00,47.4,22.5,30.20,NNE,18,10.0,10.0,37,0.00,,,0.00,vanprod-2.3,2013-05-03 20:16:00,
2013-05-03 15:21:00,47.2,22.3,30.20,North,8,7.0,8.0,37,0.00,,,0.00,vanprod-2.3,2013-05-03 20:21:00,
2013-05-03 15:26:00,47.4,22.5,30.20,NNE,22,10.0,10.0,37,0.00,,,0.00,vanprod-2.3,2013-05-03 20:26:00,
2013-05-03 15:31:00,47.5,21.9,30.20,North,9,11.0,11.0,36,0.00,,,0.00,vanprod-2.3,2013-05-03 20:31:00,
2013-05-03 15:36:00,47.5,22.5,30.20,North,358,5.0,6.0,37,0.00,,,0.00,vanprod-2.3,2013-05-03 20:36:00,
2013-05-03 15:41:00,48.0,22.3,30.20,North,6,5.0,5.0,36,0.00,,,0.00,vanprod-2.3,2013-05-03 20:41:00,
2013-05-03 15:46:00,48.1,22.4,30.20,NNW,348,8.0,8.0,36,0.00,,,0.00,vanprod-2.3,2013-05-03 20:46:00,
2013-05-03 15:51:00,47.8,22.8,30.20,North,357,7.0,9.0,37,0.00,,,0.00,vanprod-2.3,2013-05-03 20:51:00,
2013-05-03 15:56:00,47.7,22.1,30.20,NNE,19,9.0,10.0,36,0.00,,,0.00,vanprod-2.3,2013-05-03 20:56:00,
2013-05-03 16:01:00,47.5,22.5,30.19,NNE,32,6.0,9.0,37,0.00,,,0.00,vanprod-2.3,2013-05-03 21:01:00,
2013-05-03 16:06:00,47.5,21.9,30.20,NE,50,7.0,16.0,36,0.00,,,0.00,vanprod-2.3,2013-05-03 21:06:00,
2013-05-03 16:11:00,47.2,22.3,30.19,North,359,8.0,9.0,37,0.00,,,0.00,vanprod-2.3,2013-05-03 21:11:00,
2013-05-03 16:16:00,46.9,20.7,30.19,NNE,31,9.0,9.0,35,0.00,,,0.00,vanprod-2.3,2013-05-03 21:16:00,
2013-05-03 16:21:00,46.9,21.4,30.19,North,10,9.0,11.0,36,0.00,,,0.00,vanprod-2.3,2013-05-03 21:21:00,
2013-05-03 16:26:00,46.8,22.5,30.19,NNE,15,6.0,6.0,38,0.00,,,0.00,vanprod-2.3,2013-05-03 21:26:00,
2013-05-03 16:31:00,46.6,21.1,30.19,NE,36,9.0,10.0,36,0.00,,,0.00,vanprod-2.3,2013-05-03 21:31:00,
2013-05-03 16:36:00,46.5,21.6,30.19,NNE,14,9.0,9.0,37,0.00,,,0.00,vanprod-2.3,2013-05-03 21:36:00,
2013-05-03 16:41:00,46.3,21.5,30.19,NE,36,8.0,9.0,37,0.00,,,0.00,vanprod-2.3,2013-05-03 21:41:00,
2013-05-03 16:46:00,46.5,22.9,30.19,NNE,23,6.0,8.0,39,0.00,,,0.00,vanprod-2.3,2013-05-03 21:46:00,
2013-05-03 16:51:00,46.3,22.1,30.19,NNE,30,8.0,8.0,38,0.00,,,0.00,vanprod-2.3,2013-05-03 21:51:00,
2013-05-03 16:56:00,46.2,22.0,30.19,NNE,21,8.0,10.0,38,0.00,,,0.00,vanprod-2.3,2013-05-03 21:56:00,
2013-05-03 17:01:00,46.0,22.4,30.19,NNE,18,6.0,11.0,39,0.00,,,0.00,vanprod-2.3,2013-05-03 22:01:00,
2013-05-03 17:06:00,45.7,22.2,30.19,NNE,27,10.0,11.0,39,0.00,,,0.00,vanprod-2.3,2013-05-03 22:06:00,
2013-05-03 17:11:00,45.6,22.1,30.19,NE,45,7.0,10.0,39,0.00,,,0.00,vanprod-2.3,2013-05-03 22:11:00,
2013-05-03 17:16:00,45.6,22.1,30.18,NNE,25,7.0,7.0,39,0.00,,,0.00,vanprod-2.3,2013-05-03 22:16:00,
2013-05-03 17:21:00,45.7,22.2,30.18,NNE,23,6.0,6.0,39,0.00,,,0.00,vanprod-2.3,2013-05-03 22:21:00,
2013-05-03 17:26:00,45.7,22.2,30.18,North,7,8.0,8.0,39,0.00,,,0.00,vanprod-2.3,2013-05-03 22:26:00,
2013-05-03 17:31:00,45.6,22.1,30.19,NNE,19,9.0,11.0,39,0.00,,,0.00,vanprod-2.3,2013-05-03 22:31:00,
2013-05-03 17:36:00,45.3,21.8,30.19,North,6,8.0,11.0,39,0.00,,,0.00,vanprod-2.3,2013-05-03 22:36:00,
2013-05-03 17:41:00,45.2,21.7,30.18,NNE,26,10.0,10.0,39,0.00,,,0.00,vanprod-2.3,2013-05-03 22:41:00,
2013-05-03 17:46:00,45.0,22.1,30.18,NNE,28,8.0,9.0,40,0.00,,,0.00,vanprod-2.3,2013-05-03 22:46:00,
2013-05-03 17:51:00,45.0,22.7,30.18,NNE,17,7.0,8.0,41,0.00,,,0.00,vanprod-2.3,2013-05-03 22:51:00,
2013-05-03 17:56:00,45.2,22.9,30.18,NE,35,8.0,12.0,41,0.00,,,0.00,vanprod-2.3,2013-05-03 22:56:00,
2013-05-03 18:01:00,45.0,22.7,30.18,NNE,13,8.0,11.0,41,0.00,,,0.00,vanprod-2.3,2013-05-03 23:01:00,
2013-05-03 18:06:00,45.0,22.7,30.18,NNE,30,8.0,8.0,41,0.00,,,0.00,vanprod-2.3,2013-05-03 23:06:00,
2013-05-03 18:11:00,45.0,22.7,30.18,NNE,31,9.0,10.0,41,0.00,,,0.00,vanprod-2.3,2013-05-03 23:11:00,
2013-05-03 18:16:00,44.9,23.2,30.18,NNE,13,6.0,7.0,42,0.00,,,0.00,vanprod-2.3,2013-05-03 23:16:00,
2013-05-03 18:21:00,44.9,23.2,30.18,NNE,21,4.0,4.0,42,0.00,,,0.00,vanprod-2.3,2013-05-03 23:21:00,
2013-05-03 18:26:00,44.7,23.0,30.18,NNE,18,7.0,16.0,42,0.00,,,0.00,vanprod-2.3,2013-05-03 23:26:00,
2013-05-03 18:31:00,44.7,23.0,30.18,NE,42,5.0,5.0,42,0.00,,,0.00,vanprod-2.3,2013-05-03 23:31:00,
2013-05-03 18:36:00,44.4,23.3,30.18,NNE,30,8.0,12.0,43,0.00,,,0.00,vanprod-2.3,2013-05-03 23:36:00,
2013-05-03 18:41:00,44.3,23.2,30.18,NE,49,9.0,9.0,43,0.00,,,0.00,vanprod-2.3,2013-05-03 23:41:00,
2013-05-03 18:46:00,44.3,23.2,30.19,NNE,24,5.0,6.0,43,0.00,,,0.00,vanprod-2.3,2013-05-03 23:46:00,
2013-05-03 18:51:00,44.1,23.0,30.19,NNE,21,7.0,8.0,43,0.00,,,0.00,vanprod-2.3,2013-05-03 23:51:00,
2013-05-03 18:56:00,44.1,23.6,30.19,NNE,29,7.0,7.0,44,0.00,,,0.00,vanprod-2.3,2013-05-03 23:56:00,
2013-05-03 19:01:00,44.0,23.5,30.19,NE,34,5.0,7.0,44,0.00,,,0.00,vanprod-2.3,2013-05-04 00:01:00,
2013-05-03 19:06:00,43.8,23.3,30.19,NNE,23,7.0,10.0,44,0.00,,,0.00,vanprod-2.3,2013-05-04 00:06:00,
2013-05-03 19:11:00,43.8,23.3,30.19,NNE,29,4.0,7.0,44,0.00,,,0.00,vanprod-2.3,2013-05-04 00:11:00,
2013-05-03 19:16:00,43.8,23.3,30.19,NE,39,7.0,10.0,44,0.00,,,0.00,vanprod-2.3,2013-05-04 00:16:00,
2013-05-03 19:21:00,43.7,23.2,30.19,North,10,6.0,13.0,44,0.00,,,0.00,vanprod-2.3,2013-05-04 00:21:00,
2013-05-03 19:26:00,43.6,22.6,30.19,NNE,22,6.0,8.0,43,0.00,,,0.00,vanprod-2.3,2013-05-04 00:26:00,
2013-05-03 19:31:00,43.4,22.4,30.20,NNE,24,8.0,12.0,43,0.00,,,0.00,vanprod-2.3,2013-05-04 00:31:00,
2013-05-03 19:36:00,43.3,22.9,30.20,NNE,17,6.0,6.0,44,0.00,,,0.00,vanprod-2.3,2013-05-04 00:36:00,
2013-05-03 19:41:00,43.3,23.4,30.20,NNE,19,7.0,12.0,45,0.00,,,0.00,vanprod-2.3,2013-05-04 00:41:00,
2013-05-03 19:46:00,43.1,23.7,30.20,NNE,21,6.0,13.0,46,0.00,,,0.00,vanprod-2.3,2013-05-04 00:46:00,
2013-05-03 19:51:00,43.0,23.1,30.19,NNE,30,8.0,12.0,45,0.00,,,0.00,vanprod-2.3,2013-05-04 00:51:00,
2013-05-03 19:56:00,43.0,23.1,30.19,NE,55,7.0,7.0,45,0.00,,,0.00,vanprod-2.3,2013-05-04 00:56:00,
2013-05-03 20:01:00,42.8,22.9,30.19,NE,46,6.0,6.0,45,0.00,,,0.00,vanprod-2.3,2013-05-04 01:01:00,
2013-05-03 20:06:00,42.8,22.9,30.19,NNE,31,8.0,14.0,45,0.00,,,0.00,vanprod-2.3,2013-05-04 01:06:00,
2013-05-03 20:11:00,42.7,22.9,30.19,NNE,17,7.0,8.0,45,0.00,,,0.00,vanprod-2.3,2013-05-04 01:11:00,
2013-05-03 20:16:00,42.7,22.9,30.18,NNE,27,9.0,11.0,45,0.00,,,0.00,vanprod-2.3,2013-05-04 01:16:00,
2013-05-03 20:21:00,42.6,22.8,30.18,NE,40,6.0,7.0,45,0.00,,,0.00,vanprod-2.3,2013-05-04 01:21:00,
2013-05-03 20:26:00,42.4,23.1,30.18,North,5,5.0,8.0,46,0.00,,,0.00,vanprod-2.3,2013-05-04 01:26:00,
2013-05-03 20:31:00,42.4,23.1,30.18,NNE,14,6.0,6.0,46,0.00,,,0.00,vanprod-2.3,2013-05-04 01:31:00,
2013-05-03 20:36:00,42.3,23.0,30.18,NNE,21,6.0,7.0,46,0.00,,,0.00,vanprod-2.3,2013-05-04 01:36:00,
2013-05-03 20:41:00,42.3,23.0,30.18,NE,37,7.0,7.0,46,0.00,,,0.00,vanprod-2.3,2013-05-04 01:41:00,
2013-05-03 20:46:00,42.3,23.0,30.19,NNE,31,7.0,11.0,46,0.00,,,0.00,vanprod-2.3,2013-05-04 01:46:00,
2013-05-03 20:51:00,42.1,23.3,30.19,NE,34,6.0,6.0,47,0.00,,,0.00,vanprod-2.3,2013-05-04 01:51:00,
2013-05-03 20:56:00,42.1,23.3,30.19,NNE,15,8.0,11.0,47,0.00,,,0.00,vanprod-2.3,2013-05-04 01:56:00,
2013-05-03 21:01:00,42.1,23.3,30.19,NE,35,6.0,8.0,47,0.00,,,0.00,vanprod-2.3,2013-05-04 02:01:00,
2013-05-03 21:06:00,42.1,23.3,30.19,NNE,19,5.0,6.0,47,0.00,,,0.00,vanprod-2.3,2013-05-04 02:06:00,
2013-05-03 21:11:00,42.0,23.2,30.18,NNE,17,7.0,7.0,47,0.00,,,0.00,vanprod-2.3,2013-05-04 02:11:00,
2013-05-03 21:16:00,42.0,23.7,30.18,NE,47,4.0,4.0,48,0.00,,,0.00,vanprod-2.3,2013-05-04 02:16:00,
2013-05-03 21:21:00,42.0,23.7,30.19,NNE,22,7.0,7.0,48,0.00,,,0.00,vanprod-2.3,2013-05-04 02:21:00,
2013-05-03 21:26:00,41.8,23.1,30.19,NNE,21,5.0,10.0,47,0.00,,,0.00,vanprod-2.3,2013-05-04 02:26:00,
2013-05-03 21:31:00,41.8,23.6,30.19,NNE,30,5.0,6.0,48,0.00,,,0.00,vanprod-2.3,2013-05-04 02:31:00,
2013-05-03 21:36:00,41.8,23.6,30.19,NNE,26,8.0,8.0,48,0.00,,,0.00,vanprod-2.3,2013-05-04 02:36:00,
2013-05-03 21:41:00,41.7,23.5,30.20,NE,40,5.0,5.0,48,0.00,,,0.00,vanprod-2.3,2013-05-04 02:41:00,
2013-05-03 21:46:00,41.7,23.5,30.20,NE,36,4.0,5.0,48,0.00,,,0.00,vanprod-2.3,2013-05-04 02:46:00,
2013-05-03 21:51:00,41.7,23.5,30.20,NE,36,6.0,8.0,48,0.00,,,0.00,vanprod-2.3,2013-05-04 02:51:00,
2013-05-03 21:56:00,41.7,23.5,30.21,NE,38,1.0,4.0,48,0.00,,,0.00,vanprod-2.3,2013-05-04 02:56:00,
2013-05-03 22:01:00,41.7,23.5,30.21,NNE,28,1.0,0.0,48,0.00,,,0.00,vanprod-2.3,2013-05-04 03:01:00,
2013-05-03 22:06:00,41.7,23.5,30.21,NNE,27,3.0,5.0,48,0.00,,,0.00,vanprod-2.3,2013-05-04 03:06:00,
2013-05-03 22:11:00,41.6,23.9,30.21,NNE,27,1.0,1.0,49,0.00,,,0.00,vanprod-2.3,2013-05-04 03:11:00,
2013-05-03 22:16:00,41.6,23.9,30.20,NNE,27,3.0,3.0,49,0.00,,,0.00,vanprod-2.3,2013-05-04 03:16:00,
2013-05-03 22:21:00,41.4,23.7,30.20,NNE,32,3.0,7.0,49,0.00,,,0.00,vanprod-2.3,2013-05-04 03:21:00,
2013-05-03 22:26:00,41.4,23.7,30.20,NNE,27,6.0,6.0,49,0.00,,,0.00,vanprod-2.3,2013-05-04 03:26:00,
2013-05-03 22:31:00,41.3,24.1,30.20,NNE,12,5.0,6.0,50,0.00,,,0.00,vanprod-2.3,2013-05-04 03:31:00,
2013-05-03 22:36:00,41.3,24.1,30.20,NNE,28,3.0,3.0,50,0.00,,,0.00,vanprod-2.3,2013-05-04 03:36:00,
2013-05-03 22:41:00,41.3,24.1,30.20,NNE,28,3.0,6.0,50,0.00,,,0.00,vanprod-2.3,2013-05-04 03:41:00,
2013-05-03 22:46:00,41.3,24.6,30.20,NNE,30,3.0,3.0,51,0.00,,,0.00,vanprod-2.3,2013-05-04 03:46:00,
2013-05-03 22:51:00,41.3,24.1,30.20,NNE,16,5.0,7.0,50,0.00,,,0.00,vanprod-2.3,2013-05-04 03:51:00,
2013-05-03 22:56:00,41.3,24.6,30.20,NNE,18,4.0,4.0,51,0.00,,,0.00,vanprod-2.3,2013-05-04 03:56:00,
2013-05-03 23:01:00,41.1,24.4,30.20,NNE,29,5.0,5.0,51,0.00,,,0.00,vanprod-2.3,2013-05-04 04:01:00,
2013-05-03 23:06:00,41.1,24.4,30.19,NNE,21,2.0,2.0,51,0.00,,,0.00,vanprod-2.3,2013-05-04 04:06:00,
2013-05-03 23:11:00,41.1,24.4,30.19,NNE,23,3.0,6.0,51,0.00,,,0.00,vanprod-2.3,2013-05-04 04:11:00,
2013-05-03 23:16:00,41.1,24.4,30.18,NNE,27,4.0,4.0,51,0.00,,,0.00,vanprod-2.3,2013-05-04 04:16:00,
2013-05-03 23:21:00,41.0,24.3,30.18,NNE,20,4.0,7.0,51,0.00,,,0.00,vanprod-2.3,2013-05-04 04:21:00,
2013-05-03 23:26:00,41.0,24.7,30.18,NNE,27,3.0,6.0,52,0.00,,,0.00,vanprod-2.3,2013-05-04 04:26:00,
2013-05-03 23:31:00,41.0,24.7,30.19,NNE,27,3.0,6.0,52,0.00,,,0.00,vanprod-2.3,2013-05-04 04:31:00,
2013-05-03 23:36:00,41.0,24.7,30.18,NNE,27,4.0,7.0,52,0.00,,,0.00,vanprod-2.3,2013-05-04 04:36:00,
2013-05-03 23:41:00,41.0,25.2,30.18,NNE,32,4.0,5.0,53,0.00,,,0.00,vanprod-2.3,2013-05-04 04:41:00,
2013-05-03 23:46:00,40.8,26.8,30.18,NNE,30,7.0,7.0,57,0.00,,,0.00,vanprod-2.3,2013-05-04 04:46:00,
2013-05-03 23:51:00,40.7,27.9,30.18,NNE,27,7.0,8.0,60,0.00,,,0.00,vanprod-2.3,2013-05-04 04:51:00,
2013-05-03 23:56:00,40.6,28.2,30.18,North,4,1.0,2.0,61,0.00,,,0.00,vanprod-2.3,2013-05-04 04:56:00,